GFSFLT1_500_temp_000.txt.gz
Temp
-14 -14 -14 -14 -14 -14 -14 -14 -14 -15 -15 -15 -15 -16 -16 -16 -16 -16 -16 -16 -15 -15 -15 -16 -16 -16 -16 -16 -16 -16 -16 -17
-14 -14 -14 -14 -14 -14 -14 -15 -15 -15 -15 -15 -15 -16 -16 -16 -16 -16 -16 -16 -15 -15 -15 -15 -15 -15 -15 -17 -17 -16 -17 -17
-14 -14 -15 -15 -15 -15 -15 -15 -16 -16 -16 -16 -16 -16 -16 -16 -16 -16 -16 -15 -15 -15 -15 -16 -16 -16 -17 -17 -18 -17 -17 -18
-15 -15 -15 -15 -16 -16 -16 -16 -17 -16 -16 -16 -16 -16 -16 -16 -16 -16 -16 -16 -16 -16 -17 -17 -17 -18 -18 -18 -18 -19 -18 -18
-15 -15 -15 -15 -16 -16 -16 -16 -17 -16 -16 -16 -16 -16 -16 -16 -16 -16 -17 -17 -18 -18 -18 -19 -19 -19 -19 -20 -20 -19 -20 -19
-15 -15 -15 -16 -16 -16 -16 -16 -16 -16 -16 -16 -17 -17 -17 -17 -17 -18 -18 -19 -19 -19 -20 -20 -20 -20 -20 -20 -21 -21 -21 -21
-15 -16 -16 -16 -16 -16 -16 -16 -17 -17 -17 -17 -17 -17 -18 -19 -19 -19 -19 -20 -20 -20 -20 -21 -21 -21 -21 -21 -21 -21 -21 -21
-16 -16 -16 -16 -16 -17 -17 -17 -17 -17 -18 -18 -19 -20 -20 -19 -20 -20 -20 -20 -21 -21 -21 -21 -21 -21 -22 -22 -22 -22 -21 -22
-16 -16 -16 -17 -16 -17 -17 -17 -17 -18 -18 -19 -19 -20 -20 -21 -21 -21 -21 -21 -21 -21 -22 -22 -22 -23 -23 -22 -23 -23 -23 -22
-16 -16 -16 -17 -17 -17 -17 -17 -18 -18 -19 -20 -20 -21 -20 -21 -21 -21 -22 -22 -22 -22 -23 -23 -23 -24 -24 -24 -25 -25 -25 -26
-17 -17 -16 -16 -16 -17 -18 -18 -19 -19 -20 -20 -20 -21 -21 -21 -22 -22 -22 -23 -23 -24 -24 -25 -25 -25 -26 -27 -27 -28 -30 -30
-17 -17 -17 -17 -18 -18 -19 -19 -19 -19 -20 -20 -21 -21 -21 -22 -22 -23 -23 -24 -25 -25 -26 -26 -26 -27 -28 -29 -31 -31 -31 -31
-17 -17 -18 -18 -19 -19 -19 -19 -20 -21 -21 -21 -22 -22 -22 -23 -24 -25 -25 -25 -26 -26 -26 -27 -28 -29 -30 -31 -32 -32 -31 -31
-18 -18 -18 -19 -19 -19 -20 -20 -21 -21 -22 -23 -23 -23 -25 -25 -25 -26 -26 -26 -27 -27 -28 -29 -30 -30 -31 -31 -31 -31 -31 -31
-18 -18 -19 -19 -19 -20 -21 -22 -22 -23 -23 -23 -24 -25 -25 -25 -26 -26 -26 -27 -28 -29 -30 -30 -30 -30 -31 -31 -31 -31 -31 -31
-18 -19 -19 -20 -21 -21 -22 -23 -23 -23 -23 -23 -24 -25 -25 -26 -27 -27 -28 -29 -30 -31 -31 -30 -31 -31 -31 -31 -31 -31 -31 -31
-19 -19 -19 -20 -21 -22 -23 -24 -23 -23 -23 -24 -25 -26 -27 -27 -28 -29 -29 -30 -31 -31 -31 -31 -31 -31 -31 -31 -31 -31 -31 -31
-19 -19 -20 -21 -23 -23 -24 -24 -24 -24 -25 -26 -27 -28 -28 -28 -29 -30 -31 -31 -31 -31 -31 -31 -31 -31 -31 -31 -31 -31 -31 -31
-20 -21 -22 -23 -23 -24 -24 -24 -25 -26 -27 -28 -28 -29 -29 -30 -30 -31 -31 -31 -31 -31 -31 -31 -31 -32 -32 -32 -32 -32 -32 -32

GFSFLT1_500_temp_003.txt.gz
Temp
-14 -14 -14 -14 -14 -15 -15 -15 -15 -15 -15 -16 -16 -16 -16 -16 -16 -16 -16 -16 -16 -16 -15 -15 -16 -16 -15 -15 -16 -16 -16 -16
-14 -14 -14 -15 -15 -16 -16 -15 -16 -16 -16 -16 -16 -16 -17 -17 -17 -16 -16 -16 -16 -16 -15 -16 -16 -16 -16 -17 -17 -17 -16 -17
-14 -14 -15 -15 -15 -16 -16 -16 -16 -16 -16 -17 -17 -17 -17 -17 -16 -16 -16 -16 -16 -16 -17 -17 -17 -17 -18 -18 -18 -18 -18 -19
-14 -15 -15 -16 -16 -16 -16 -16 -16 -17 -17 -17 -17 -17 -17 -17 -16 -17 -17 -17 -18 -18 -18 -19 -19 -19 -19 -19 -19 -19 -19 -19
-15 -16 -16 -16 -16 -17 -17 -17 -17 -17 -17 -17 -17 -17 -17 -17 -17 -17 -18 -19 -19 -19 -20 -20 -20 -20 -20 -20 -20 -20 -21 -20
-16 -15 -16 -16 -16 -17 -16 -16 -17 -17 -17 -17 -17 -17 -18 -18 -18 -19 -20 -20 -20 -20 -20 -20 -21 -21 -21 -21 -21 -21 -21 -21
-15 -16 -16 -16 -16 -16 -17 -17 -17 -17 -17 -17 -18 -18 -19 -18 -19 -20 -20 -20 -20 -20 -21 -21 -21 -21 -21 -21 -21 -21 -22 -22
-16 -16 -16 -16 -17 -17 -17 -17 -17 -17 -17 -18 -18 -18 -19 -19 -20 -20 -20 -20 -21 -21 -21 -21 -22 -22 -22 -22 -23 -23 -23 -23
-16 -16 -17 -17 -17 -17 -17 -17 -17 -17 -18 -18 -18 -19 -19 -19 -20 -20 -21 -21 -22 -22 -22 -22 -23 -23 -23 -24 -24 -25 -25 -25
-17 -17 -17 -17 -17 -17 -18 -18 -18 -18 -19 -19 -19 -20 -20 -21 -21 -21 -21 -22 -23 -23 -23 -24 -24 -24 -25 -25 -26 -26 -26 -27
-17 -17 -17 -17 -17 -18 -18 -18 -19 -19 -19 -19 -20 -21 -21 -22 -22 -22 -23 -23 -23 -24 -25 -25 -26 -26 -26 -27 -27 -29 -29 -29
-17 -17 -17 -18 -18 -18 -18 -18 -18 -19 -19 -20 -21 -21 -22 -23 -23 -23 -23 -23 -24 -25 -26 -26 -27 -27 -28 -29 -30 -30 -31 -31
-17 -18 -18 -18 -18 -18 -18 -18 -19 -20 -20 -21 -22 -22 -23 -24 -24 -23 -24 -25 -25 -26 -27 -28 -29 -30 -30 -31 -31 -30 -31 -31
-18 -18 -18 -18 -18 -18 -18 -18 -19 -20 -21 -22 -23 -24 -24 -24 -25 -25 -25 -26 -27 -28 -28 -30 -30 -31 -31 -31 -30 -31 -31 -31
-18 -18 -18 -18 -18 -18 -19 -20 -21 -22 -23 -23 -24 -24 -24 -25 -26 -26 -27 -28 -28 -29 -30 -31 -31 -31 -31 -31 -31 -31 -31 -31
-17 -18 -18 -18 -19 -20 -21 -21 -22 -23 -24 -24 -25 -25 -26 -27 -27 -28 -29 -29 -30 -30 -31 -31 -31 -31 -31 -31 -31 -31 -31 -31
-18 -18 -19 -20 -20 -21 -22 -23 -23 -24 -24 -25 -26 -27 -28 -28 -29 -29 -29 -30 -31 -31 -31 -31 -31 -31 -31 -31 -32 -32 -32 -32
-19 -19 -19 -20 -22 -23 -23 -24 -24 -24 -25 -26 -27 -28 -29 -29 -30 -30 -31 -31 -31 -31 -31 -31 -31 -32 -32 -33 -33 -34 -34 -34
-19 -20 -21 -22 -23 -23 -23 -24 -25 -25 -27 -28 -29 -29 -30 -30 -30 -31 -31 -32 -31 -32 -32 -32 -32 -33 -33 -34 -34 -35 -35 -35

GFSFLT1_500_temp_006.txt.gz
Temp
-14 -13 -14 -14 -14 -14 -14 -13 -14 -15 -15 -16 -16 -16 -16 -16 -17 -16 -17 -17 -16 -16 -16 -15 -15 -15 -15 -16 -15 -15 -15 -15
-14 -14 -14 -15 -15 -15 -14 -14 -15 -15 -15 -16 -16 -17 -17 -17 -17 -16 -16 -16 -17 -16 -16 -16 -16 -16 -16 -16 -16 -16 -16 -16
-14 -14 -15 -15 -16 -15 -16 -15 -16 -16 -16 -16 -17 -18 -17 -17 -17 -17 -16 -17 -17 -18 -18 -17 -17 -19 -19 -18 -19 -18 -18 -18
-14 -14 -15 -16 -16 -16 -17 -17 -17 -17 -17 -17 -17 -17 -17 -17 -17 -18 -17 -18 -18 -18 -18 -18 -18 -19 -19 -19 -19 -19 -19 -19
-14 -15 -15 -16 -17 -17 -17 -17 -17 -18 -18 -17 -17 -17 -17 -17 -18 -18 -18 -18 -18 -19 -19 -19 -19 -19 -20 -20 -20 -20 -20 -20
-15 -15 -15 -16 -16 -16 -17 -17 -17 -17 -17 -17 -17 -17 -17 -17 -18 -18 -18 -18 -18 -19 -19 -19 -20 -20 -21 -21 -21 -21 -22 -22
-15 -16 -15 -16 -16 -17 -17 -18 -17 -17 -17 -17 -18 -18 -17 -17 -17 -18 -18 -19 -19 -20 -20 -21 -21 -21 -21 -21 -22 -23 -23 -23
-16 -16 -16 -16 -16 -17 -17 -17 -18 -18 -17 -17 -17 -17 -17 -18 -18 -19 -19 -19 -20 -21 -21 -22 -22 -22 -23 -23 -23 -23 -23 -23
-16 -16 -16 -16 -17 -17 -17 -17 -17 -17 -18 -17 -17 -18 -18 -18 -19 -20 -20 -21 -22 -22 -22 -22 -23 -23 -23 -23 -24 -24 -25 -25
-17 -17 -16 -17 -17 -17 -17 -17 -17 -18 -18 -18 -18 -19 -19 -19 -20 -20 -21 -22 -23 -23 -23 -24 -24 -24 -25 -25 -25 -26 -26 -28
-17 -17 -17 -17 -16 -16 -17 -17 -17 -17 -17 -18 -18 -19 -19 -20 -21 -22 -23 -24 -24 -24 -24 -24 -25 -26 -26 -26 -27 -28 -29 -30
-18 -17 -17 -17 -17 -17 -17 -17 -17 -18 -18 -18 -19 -20 -21 -22 -22 -23 -23 -24 -25 -25 -26 -26 -27 -27 -28 -29 -30 -30 -31 -31
-17 -17 -17 -17 -17 -18 -18 -18 -18 -18 -19 -19 -21 -21 -22 -23 -24 -24 -25 -25 -26 -27 -27 -28 -29 -29 -30 -31 -31 -31 -31 -31
-17 -18 -18 -18 -18 -18 -18 -18 -19 -19 -19 -21 -22 -22 -23 -25 -25 -25 -26 -27 -28 -28 -29 -29 -30 -30 -31 -31 -31 -31 -31 -31
-18 -18 -18 -18 -18 -18 -18 -19 -19 -21 -21 -21 -23 -23 -24 -25 -26 -27 -28 -29 -29 -30 -30 -31 -31 -31 -31 -31 -31 -31 -31 -31
-18 -18 -18 -18 -18 -19 -19 -20 -22 -22 -23 -22 -23 -23 -24 -25 -27 -28 -29 -30 -30 -30 -31 -32 -32 -32 -31 -32 -32 -32 -32 -32
-18 -18 -18 -18 -19 -19 -20 -21 -22 -22 -23 -23 -23 -25 -26 -27 -29 -30 -30 -30 -31 -32 -32 -32 -32 -32 -32 -32 -33 -33 -34 -34
-18 -18 -18 -19 -20 -20 -21 -22 -23 -23 -23 -24 -26 -27 -30 -31 -31 -31 -31 -32 -32 -33 -32 -32 -32 -32 -32 -32 -33 -34 -34 -34
-18 -19 -19 -19 -20 -21 -21 -22 -23 -24 -25 -26 -28 -29 -29 -32 -32 -33 -32 -33 -33 -32 -33 -32 -32 -33 -33 -34 -34 -34 -34 -34

GFSFLT1_500_temp_009.txt.gz
Temp
-13 -14 -14 -14 -14 -14 -14 -15 -15 -16 -15 -16 -16 -17 -17 -16 -17 -17 -16 -16 -16 -16 -16 -16 -16 -16 -16 -16 -15 -16 -15 -15
-14 -14 -14 -15 -15 -15 -15 -15 -15 -15 -16 -16 -17 -17 -17 -17 -17 -16 -16 -17 -17 -16 -16 -17 -16 -16 -17 -17 -17 -17 -17 -17
-15 -15 -15 -15 -16 -16 -15 -16 -16 -16 -16 -17 -17 -18 -17 -17 -17 -17 -17 -17 -16 -16 -16 -16 -17 -17 -17 -17 -17 -17 -18 -18
-15 -15 -16 -16 -16 -16 -17 -17 -17 -17 -17 -17 -18 -18 -17 -17 -17 -17 -17 -17 -17 -17 -17 -17 -17 -17 -17 -18 -18 -19 -19 -19
-15 -16 -16 -16 -16 -16 -16 -17 -17 -17 -18 -18 -18 -17 -17 -17 -17 -17 -17 -17 -18 -18 -18 -18 -19 -18 -18 -19 -19 -20 -20 -21
-15 -16 -16 -16 -16 -16 -16 -17 -17 -17 -17 -17 -17 -17 -17 -18 -18 -18 -18 -18 -18 -18 -18 -18 -19 -19 -20 -20 -21 -21 -22 -22
-16 -16 -16 -16 -16 -16 -17 -17 -17 -17 -17 -17 -17 -17 -17 -17 -18 -18 -18 -18 -18 -19 -19 -20 -21 -21 -21 -22 -22 -23 -23 -23
-16 -16 -15 -16 -17 -17 -17 -17 -17 -17 -17 -17 -17 -17 -17 -17 -18 -18 -18 -19 -20 -20 -20 -21 -22 -22 -23 -23 -23 -23 -23 -24
-17 -17 -17 -16 -17 -18 -18 -18 -18 -18 -18 -18 -18 -18 -17 -18 -18 -19 -19 -20 -21 -21 -22 -23 -23 -23 -24 -24 -24 -25 -25 -25
-17 -17 -17 -17 -17 -17 -17 -17 -17 -17 -17 -17 -18 -18 -18 -19 -20 -20 -21 -22 -23 -23 -23 -24 -24 -25 -25 -26 -26 -27 -28 -28
-18 -18 -17 -18 -18 -18 -18 -18 -17 -17 -18 -18 -18 -19 -19 -20 -21 -22 -23 -23 -23 -23 -24 -25 -26 -27 -28 -29 -29 -29 -30 -30
-18 -18 -17 -18 -18 -18 -17 -17 -18 -18 -18 -18 -19 -20 -20 -21 -22 -23 -23 -24 -24 -25 -27 -28 -28 -29 -29 -30 -30 -31 -31 -32
-18 -18 -18 -18 -18 -18 -18 -18 -18 -18 -18 -19 -20 -20 -21 -22 -23 -23 -24 -25 -26 -28 -29 -30 -30 -30 -31 -31 -31 -32 -32 -32
-18 -18 -18 -18 -18 -18 -18 -18 -18 -19 -19 -19 -20 -21 -22 -22 -23 -23 -24 -26 -28 -30 -31 -31 -31 -31 -32 -32 -32 -32 -32 -32
-19 -18 -18 -18 -18 -18 -18 -18 -19 -19 -19 -20 -21 -22 -22 -23 -24 -25 -27 -30 -31 -30 -31 -32 -33 -33 -32 -32 -32 -32 -32 -32
-18 -18 -18 -18 -18 -18 -18 -19 -19 -20 -21 -21 -21 -22 -23 -25 -26 -28 -30 -31 -31 -32 -32 -33 -33 -32 -32 -32 -32 -33 -33 -33
-18 -18 -18 -18 -18 -19 -19 -19 -20 -20 -21 -22 -23 -23 -25 -26 -28 -31 -31 -31 -32 -32 -32 -33 -32 -32 -32 -33 -33 -33 -33 -33
-18 -18 -18 -18 -19 -19 -19 -20 -20 -21 -22 -23 -24 -25 -26 -28 -30 -32 -32 -32 -33 -33 -33 -33 -32 -32 -33 -33 -33 -33 -34 -34
-18 -18 -18 -19 -19 -20 -20 -21 -21 -22 -23 -24 -25 -26 -28 -29 -31 -32 -33 -33 -33 -33 -33 -33 -33 -33 -33 -33 -34 -34 -34 -35

GFSFLT1_500_temp_012.txt.gz
Temp
-13 -13 -13 -13 -14 -15 -15 -16 -15 -15 -16 -16 -16 -16 -16 -17 -17 -17 -17 -17 -17 -17 -16 -16 -16 -16 -16 -16 -16 -16 -16 -15
-14 -14 -15 -14 -14 -15 -16 -16 -14 -15 -16 -16 -16 -17 -16 -17 -18 -18 -17 -17 -17 -17 -17 -17 -17 -17 -17 -16 -16 -16 -16 -16
-15 -16 -16 -16 -16 -15 -16 -16 -16 -16 -16 -16 -17 -17 -17 -17 -18 -18 -18 -18 -18 -17 -17 -18 -18 -17 -17 -17 -17 -17 -18 -18
-16 -17 -16 -16 -16 -15 -15 -16 -16 -16 -16 -17 -17 -17 -18 -18 -18 -18 -18 -18 -18 -18 -18 -18 -18 -18 -18 -18 -18 -19 -19 -19
-16 -16 -16 -16 -16 -16 -16 -16 -16 -17 -17 -18 -18 -18 -18 -18 -19 -19 -19 -19 -18 -18 -19 -19 -18 -18 -19 -19 -19 -20 -20 -20
-16 -16 -17 -16 -17 -17 -17 -17 -18 -18 -17 -18 -18 -18 -19 -19 -18 -18 -18 -18 -18 -18 -18 -18 -19 -19 -20 -20 -21 -21 -22 -22
-16 -16 -17 -17 -17 -17 -18 -18 -17 -17 -18 -18 -18 -18 -18 -17 -18 -18 -18 -18 -18 -19 -19 -20 -20 -20 -21 -22 -22 -23 -23 -23
-16 -17 -17 -17 -17 -18 -18 -18 -18 -18 -18 -18 -18 -17 -17 -18 -18 -18 -18 -19 -19 -19 -20 -21 -22 -22 -23 -23 -24 -24 -24 -24
-16 -17 -17 -17 -17 -18 -18 -18 -18 -17 -17 -17 -17 -17 -17 -17 -18 -18 -19 -19 -20 -21 -21 -22 -23 -23 -24 -24 -24 -25 -26 -27
-17 -18 -18 -18 -18 -18 -17 -17 -17 -17 -17 -17 -18 -18 -18 -18 -19 -19 -20 -20 -21 -22 -22 -23 -24 -24 -25 -26 -27 -29 -29 -30
-18 -18 -18 -18 -17 -18 -18 -17 -18 -18 -18 -18 -18 -18 -19 -19 -20 -20 -20 -21 -23 -23 -24 -24 -25 -27 -29 -30 -31 -31 -30 -31
-18 -17 -17 -17 -18 -18 -18 -18 -18 -18 -19 -19 -19 -19 -19 -20 -20 -21 -21 -22 -23 -24 -25 -26 -28 -31 -31 -31 -32 -32 -32 -33
-18 -18 -18 -19 -19 -18 -19 -18 -18 -19 -18 -19 -19 -19 -20 -20 -21 -22 -22 -23 -24 -26 -28 -30 -31 -31 -31 -32 -32 -33 -33 -33
-18 -19 -19 -19 -18 -18 -18 -18 -19 -19 -19 -19 -20 -20 -20 -21 -22 -22 -23 -24 -26 -29 -30 -31 -32 -32 -31 -32 -33 -33 -32 -32
-18 -19 -19 -18 -18 -18 -19 -19 -19 -19 -19 -19 -20 -20 -21 -22 -23 -24 -25 -27 -28 -30 -31 -32 -32 -32 -32 -33 -33 -33 -32 -33
-19 -18 -18 -19 -19 -19 -19 -19 -19 -19 -19 -20 -20 -21 -22 -23 -24 -24 -27 -28 -30 -31 -32 -32 -33 -33 -33 -33 -33 -33 -33 -33
-19 -19 -19 -19 -19 -19 -19 -19 -19 -19 -20 -21 -22 -22 -23 -24 -25 -26 -28 -30 -31 -33 -33 -34 -33 -33 -33 -33 -33 -33 -33 -33
-19 -19 -19 -19 -19 -19 -19 -19 -20 -20 -21 -22 -23 -23 -24 -25 -27 -29 -30 -31 -32 -33 -34 -33 -33 -33 -33 -33 -33 -32 -33 -34
-19 -20 -20 -19 -19 -19 -19 -20 -20 -21 -22 -23 -24 -24 -25 -26 -29 -30 -31 -33 -33 -33 -33 -33 -33 -33 -33 -33 -33 -33 -34 -34

GFSFLT1_500_temp_015.txt.gz
Temp
-14 -14 -14 -13 -13 -14 -14 -14 -14 -15 -15 -15 -17 -16 -17 -17 -17 -17 -17 -17 -17 -17 -17 -16 -16 -16 -16 -16 -16 -16 -16 -16
-15 -15 -14 -14 -14 -15 -15 -16 -16 -16 -16 -16 -17 -17 -17 -17 -17 -17 -18 -17 -17 -17 -17 -17 -17 -17 -17 -17 -17 -17 -17 -18
-16 -16 -16 -15 -15 -15 -16 -15 -15 -16 -16 -16 -16 -17 -17 -17 -17 -17 -17 -18 -17 -17 -17 -17 -18 -18 -18 -18 -18 -18 -18 -19
-15 -15 -16 -15 -16 -16 -16 -16 -16 -16 -16 -17 -17 -17 -17 -18 -18 -18 -17 -17 -18 -18 -19 -19 -19 -19 -19 -19 -19 -19 -19 -19
-15 -15 -16 -16 -16 -16 -17 -17 -17 -17 -17 -17 -17 -18 -18 -18 -18 -18 -19 -19 -19 -19 -19 -19 -19 -18 -19 -19 -19 -19 -20 -20
-15 -16 -16 -16 -16 -16 -16 -17 -17 -17 -17 -18 -19 -19 -19 -19 -19 -19 -18 -18 -18 -19 -19 -19 -19 -19 -19 -20 -20 -21 -22 -22
-16 -16 -16 -16 -17 -17 -17 -17 -18 -18 -18 -18 -18 -18 -18 -18 -18 -18 -18 -18 -18 -18 -19 -19 -20 -20 -21 -21 -22 -22 -23 -23
-16 -16 -16 -17 -17 -17 -18 -18 -19 -19 -19 -19 -19 -18 -18 -18 -17 -18 -18 -18 -18 -19 -19 -20 -21 -21 -22 -23 -23 -23 -24 -25
-17 -17 -17 -17 -17 -18 -18 -18 -18 -18 -18 -18 -17 -17 -17 -17 -18 -18 -18 -19 -19 -20 -21 -21 -22 -22 -22 -23 -23 -25 -26 -28
-18 -18 -18 -18 -18 -18 -18 -18 -18 -18 -18 -18 -18 -18 -18 -18 -18 -19 -19 -20 -20 -20 -21 -22 -22 -23 -24 -24 -27 -29 -30 -31
-17 -17 -17 -18 -18 -18 -18 -18 -18 -18 -18 -18 -18 -18 -18 -18 -19 -19 -20 -20 -20 -21 -22 -23 -24 -25 -27 -29 -30 -31 -32 -32
-16 -17 -17 -18 -18 -18 -18 -19 -19 -18 -18 -18 -19 -19 -19 -19 -19 -19 -20 -20 -21 -22 -23 -24 -25 -28 -30 -31 -32 -32 -32 -32
-16 -17 -18 -18 -19 -19 -19 -19 -19 -19 -19 -19 -19 -19 -19 -19 -19 -20 -21 -22 -23 -23 -24 -26 -28 -30 -31 -32 -33 -32 -33 -33
-17 -17 -18 -18 -19 -19 -19 -19 -19 -19 -19 -19 -19 -19 -19 -19 -20 -21 -22 -23 -24 -25 -26 -28 -30 -31 -32 -33 -33 -33 -33 -33
-17 -18 -18 -19 -19 -19 -19 -19 -19 -19 -19 -19 -19 -19 -19 -20 -21 -22 -23 -24 -25 -26 -28 -30 -31 -32 -33 -33 -33 -33 -33 -32
-18 -18 -19 -19 -20 -20 -20 -19 -19 -19 -19 -19 -20 -20 -20 -21 -22 -23 -24 -25 -26 -28 -30 -30 -32 -33 -33 -33 -33 -33 -33 -33
-18 -18 -19 -20 -20 -20 -20 -20 -19 -19 -20 -20 -20 -21 -22 -23 -23 -24 -25 -27 -29 -30 -31 -32 -32 -32 -33 -33 -33 -33 -33 -32
-18 -19 -20 -20 -20 -20 -20 -20 -20 -20 -20 -20 -21 -22 -23 -24 -24 -25 -27 -29 -31 -32 -33 -32 -32 -33 -33 -33 -33 -33 -33 -33
-19 -20 -20 -20 -20 -20 -20 -20 -20 -20 -21 -21 -22 -23 -24 -25 -26 -27 -29 -30 -31 -32 -33 -32 -32 -33 -33 -33 -33 -33 -33 -33

GFSFLT1_500_temp_018.txt.gz
Temp
-14 -14 -14 -14 -14 -14 -14 -14 -14 -14 -16 -16 -16 -15 -16 -16 -17 -17 -17 -17 -17 -17 -17 -17 -17 -17 -17 -17 -17 -17 -17 -17
-14 -14 -14 -14 -14 -14 -13 -14 -14 -16 -15 -16 -16 -16 -16 -16 -16 -17 -17 -17 -18 -17 -17 -18 -18 -17 -17 -17 -17 -18 -18 -18
-15 -15 -15 -15 -15 -15 -15 -15 -15 -15 -16 -16 -16 -17 -17 -17 -18 -18 -18 -18 -18 -18 -17 -17 -17 -18 -18 -18 -19 -19 -19 -19
-15 -16 -16 -16 -16 -15 -15 -16 -16 -16 -17 -17 -17 -17 -18 -18 -17 -18 -18 -18 -18 -18 -18 -19 -20 -19 -19 -19 -19 -19 -19 -19
-15 -16 -15 -16 -16 -15 -16 -16 -17 -17 -17 -17 -17 -17 -18 -18 -18 -18 -18 -19 -19 -19 -19 -19 -18 -18 -18 -18 -18 -19 -19 -20
-16 -16 -16 -16 -16 -16 -17 -17 -17 -17 -17 -18 -18 -18 -18 -19 -19 -19 -19 -19 -18 -18 -18 -18 -18 -18 -19 -19 -19 -20 -20 -21
-16 -16 -17 -17 -17 -16 -17 -17 -18 -18 -19 -19 -19 -19 -19 -19 -19 -18 -18 -18 -18 -18 -18 -18 -19 -19 -19 -20 -20 -21 -22 -23
-16 -17 -17 -17 -17 -17 -17 -18 -19 -18 -19 -19 -18 -18 -18 -18 -18 -18 -18 -18 -18 -18 -19 -19 -19 -20 -20 -21 -22 -23 -23 -24
-16 -16 -16 -17 -17 -17 -18 -18 -18 -18 -18 -18 -18 -18 -18 -18 -18 -18 -18 -18 -18 -19 -19 -20 -20 -21 -22 -23 -23 -24 -25 -26
-16 -16 -16 -17 -17 -17 -18 -18 -18 -18 -18 -18 -18 -19 -19 -18 -18 -18 -18 -19 -19 -19 -20 -20 -21 -22 -23 -24 -25 -26 -28 -30
-15 -16 -16 -16 -17 -17 -18 -18 -19 -19 -19 -19 -19 -19 -19 -18 -18 -19 -19 -19 -19 -20 -20 -21 -22 -23 -24 -25 -27 -29 -31 -32
-16 -16 -16 -16 -17 -17 -18 -18 -19 -19 -19 -19 -19 -19 -19 -19 -19 -19 -19 -20 -20 -21 -21 -23 -24 -25 -26 -28 -30 -31 -31 -33
-15 -16 -16 -17 -17 -18 -18 -19 -19 -19 -19 -19 -19 -19 -19 -19 -19 -20 -20 -21 -21 -22 -23 -24 -25 -27 -28 -30 -31 -32 -32 -33
-16 -16 -16 -17 -18 -18 -18 -19 -19 -19 -19 -19 -19 -19 -19 -20 -20 -20 -21 -21 -22 -23 -24 -26 -27 -28 -30 -31 -32 -32 -33 -33
-16 -16 -17 -18 -18 -18 -18 -19 -19 -20 -20 -20 -20 -20 -20 -20 -21 -21 -22 -22 -23 -24 -26 -27 -29 -30 -31 -32 -32 -32 -33 -33
-17 -17 -18 -18 -18 -18 -19 -19 -20 -20 -20 -20 -20 -20 -20 -21 -21 -22 -22 -24 -25 -26 -27 -29 -30 -31 -32 -32 -32 -32 -33 -33
-17 -17 -18 -19 -19 -19 -20 -20 -20 -20 -21 -21 -21 -20 -21 -21 -22 -23 -23 -25 -26 -28 -29 -30 -31 -32 -32 -32 -32 -33 -33 -33
-17 -18 -18 -19 -19 -20 -20 -21 -21 -21 -21 -21 -21 -21 -21 -22 -23 -24 -25 -27 -28 -29 -30 -31 -32 -33 -32 -32 -33 -33 -33 -33
-18 -18 -19 -20 -20 -20 -21 -21 -21 -21 -21 -21 -21 -22 -22 -23 -24 -25 -27 -28 -29 -30 -31 -32 -32 -33 -32 -32 -33 -33 -33 -33

GFSFLT1_500_temp_021.txt.gz
Temp
-15 -14 -14 -15 -15 -14 -15 -15 -15 -14 -15 -15 -16 -16 -16 -17 -17 -17 -17 -17 -18 -18 -18 -18 -18 -18 -18 -17 -17 -17 -17 -17
-14 -14 -14 -14 -15 -15 -15 -15 -15 -15 -15 -15 -16 -16 -16 -16 -16 -17 -17 -18 -18 -18 -18 -18 -18 -17 -17 -17 -18 -18 -18 -18
-15 -15 -15 -15 -15 -15 -15 -15 -15 -15 -15 -16 -16 -17 -17 -17 -17 -18 -18 -18 -18 -18 -18 -18 -18 -18 -19 -19 -19 -19 -19 -19
-15 -15 -16 -16 -16 -16 -16 -16 -15 -16 -16 -16 -17 -16 -17 -18 -18 -18 -18 -19 -19 -19 -19 -19 -19 -19 -18 -18 -18 -18 -19 -19
-15 -16 -16 -16 -16 -16 -15 -15 -16 -16 -17 -17 -17 -17 -17 -18 -18 -18 -19 -19 -19 -19 -19 -19 -18 -18 -18 -18 -18 -19 -19 -19
-16 -16 -15 -15 -15 -16 -16 -16 -17 -17 -16 -16 -17 -18 -18 -19 -19 -19 -19 -19 -19 -18 -18 -18 -18 -18 -18 -19 -19 -19 -20 -20
-16 -16 -15 -15 -15 -16 -16 -16 -16 -16 -17 -18 -18 -19 -19 -19 -19 -19 -19 -18 -18 -18 -18 -18 -19 -19 -19 -19 -19 -20 -21 -21
-16 -16 -15 -15 -15 -16 -16 -16 -16 -17 -17 -18 -18 -18 -18 -18 -18 -19 -19 -19 -18 -18 -19 -19 -18 -19 -19 -20 -21 -22 -22 -22
-15 -15 -15 -15 -15 -16 -16 -16 -17 -17 -17 -18 -17 -18 -18 -19 -19 -19 -19 -19 -19 -19 -19 -19 -20 -20 -20 -21 -22 -22 -23 -24
-15 -15 -15 -15 -15 -16 -16 -16 -17 -17 -17 -18 -19 -19 -19 -19 -19 -19 -19 -19 -19 -19 -19 -20 -20 -21 -22 -22 -23 -24 -25 -27
-15 -15 -15 -15 -16 -16 -16 -16 -17 -17 -18 -18 -18 -19 -19 -19 -19 -20 -20 -19 -19 -20 -20 -20 -21 -22 -23 -23 -24 -26 -28 -29
-15 -15 -15 -16 -16 -16 -16 -17 -17 -18 -18 -18 -19 -19 -20 -20 -19 -19 -19 -20 -20 -20 -21 -21 -22 -23 -23 -25 -27 -29 -30 -31
-15 -15 -15 -15 -16 -16 -16 -17 -17 -18 -19 -19 -20 -20 -20 -20 -20 -20 -20 -20 -21 -21 -22 -22 -23 -24 -26 -28 -29 -31 -31 -32
-15 -16 -16 -16 -16 -17 -17 -18 -19 -19 -20 -20 -20 -20 -20 -20 -20 -20 -21 -21 -21 -22 -23 -23 -24 -26 -28 -29 -30 -31 -32 -32
-16 -16 -16 -16 -17 -17 -18 -19 -19 -20 -20 -20 -20 -20 -20 -21 -21 -21 -21 -21 -22 -23 -23 -24 -26 -28 -29 -30 -31 -32 -32 -32
-16 -16 -17 -17 -18 -18 -19 -19 -20 -20 -20 -20 -21 -21 -21 -21 -21 -21 -22 -22 -23 -23 -24 -27 -28 -29 -30 -31 -32 -32 -32 -32
-17 -17 -17 -18 -18 -19 -19 -20 -20 -20 -20 -21 -21 -21 -22 -21 -22 -22 -23 -23 -23 -24 -26 -28 -29 -30 -31 -32 -33 -33 -32 -32
-17 -17 -18 -18 -19 -19 -20 -20 -21 -21 -21 -21 -22 -22 -22 -22 -23 -23 -23 -24 -25 -26 -28 -29 -30 -31 -32 -33 -33 -33 -33 -33
-18 -18 -18 -19 -19 -20 -20 -21 -21 -21 -21 -22 -22 -22 -22 -23 -23 -23 -24 -25 -26 -28 -29 -30 -31 -32 -32 -33 -33 -33 -33 -33

GFSFLT1_500_temp_024.txt.gz
Temp
-15 -15 -15 -15 -15 -15 -15 -15 -15 -14 -15 -16 -16 -15 -16 -16 -17 -17 -18 -18 -18 -18 -19 -19 -18 -18 -18 -18 -17 -17 -18 -18
-14 -15 -15 -15 -15 -15 -15 -15 -15 -15 -15 -15 -16 -16 -17 -17 -17 -17 -17 -18 -18 -18 -18 -18 -18 -18 -18 -19 -19 -19 -19 -19
-15 -15 -15 -15 -15 -15 -15 -15 -15 -15 -15 -15 -16 -17 -17 -17 -16 -17 -18 -18 -19 -19 -20 -20 -20 -20 -19 -19 -19 -19 -19 -18
-15 -15 -15 -15 -15 -15 -15 -15 -15 -15 -15 -15 -16 -16 -16 -17 -17 -18 -18 -19 -19 -19 -19 -19 -19 -19 -19 -19 -19 -18 -18 -18
-15 -16 -16 -16 -15 -15 -15 -15 -15 -15 -15 -16 -16 -16 -16 -17 -18 -18 -19 -19 -19 -19 -19 -19 -19 -19 -18 -18 -19 -19 -19 -19
-16 -16 -15 -15 -15 -15 -15 -15 -15 -15 -15 -15 -16 -16 -16 -17 -18 -19 -19 -19 -19 -19 -19 -19 -19 -19 -19 -19 -19 -19 -19 -19
-16 -15 -15 -14 -15 -15 -15 -15 -15 -15 -15 -15 -16 -16 -17 -17 -18 -18 -19 -19 -19 -19 -19 -19 -19 -19 -19 -19 -19 -20 -20 -20
-15 -14 -14 -14 -14 -15 -15 -15 -15 -15 -15 -16 -16 -17 -17 -18 -18 -19 -19 -19 -19 -20 -19 -19 -19 -19 -19 -20 -20 -21 -21 -21
-14 -14 -14 -14 -15 -15 -15 -15 -15 -15 -16 -16 -17 -17 -18 -18 -18 -19 -19 -19 -19 -19 -19 -19 -19 -20 -20 -20 -21 -21 -22 -22
-14 -14 -15 -15 -15 -15 -15 -15 -16 -16 -16 -17 -17 -18 -18 -18 -18 -19 -19 -20 -19 -19 -19 -20 -20 -20 -21 -21 -22 -22 -22 -24
-15 -15 -15 -15 -15 -15 -15 -16 -16 -16 -17 -17 -18 -18 -19 -19 -19 -20 -20 -20 -20 -20 -20 -20 -21 -21 -22 -22 -22 -23 -24 -27
-15 -15 -15 -15 -15 -16 -16 -16 -16 -16 -17 -17 -18 -18 -19 -20 -20 -20 -20 -20 -20 -20 -21 -21 -21 -22 -22 -22 -23 -25 -27 -29
-15 -15 -15 -15 -16 -16 -16 -16 -16 -17 -18 -18 -19 -19 -20 -20 -20 -20 -20 -21 -21 -21 -21 -21 -22 -23 -22 -23 -25 -27 -29 -30
-15 -16 -16 -16 -16 -16 -16 -17 -17 -18 -18 -19 -19 -20 -20 -20 -20 -21 -21 -21 -21 -21 -22 -22 -23 -23 -23 -25 -27 -29 -30 -31
-16 -16 -16 -16 -16 -17 -17 -17 -18 -18 -19 -19 -19 -20 -21 -21 -21 -21 -21 -21 -22 -22 -22 -23 -23 -23 -25 -27 -29 -30 -31 -31
-16 -16 -16 -17 -17 -17 -17 -18 -18 -19 -19 -20 -20 -21 -21 -21 -21 -22 -22 -22 -22 -23 -23 -23 -23 -25 -27 -28 -30 -31 -31 -32
-16 -17 -17 -17 -17 -18 -18 -18 -19 -19 -20 -20 -21 -21 -21 -21 -22 -22 -22 -23 -23 -23 -23 -23 -25 -27 -28 -30 -31 -32 -32 -33
-17 -17 -18 -18 -18 -18 -19 -19 -20 -20 -20 -21 -21 -21 -22 -22 -22 -22 -22 -23 -23 -23 -23 -24 -26 -28 -29 -31 -32 -32 -33 -33
-18 -18 -18 -18 -19 -19 -19 -20 -20 -20 -21 -21 -21 -21 -22 -22 -22 -23 -24 -23 -24 -24 -24 -26 -27 -29 -30 -32 -32 -33 -33 -33

GFSFLT1_500_temp_027.txt.gz
Temp
-15 -15 -15 -15 -15 -15 -14 -14 -14 -14 -14 -15 -15 -15 -15 -15 -15 -16 -16 -17 -18 -18 -18 -18 -18 -18 -18 -18 -18 -19 -19 -19
-15 -15 -15 -15 -15 -15 -15 -14 -14 -14 -14 -15 -15 -15 -15 -15 -15 -16 -17 -17 -18 -18 -18 -18 -19 -20 -19 -20 -20 -19 -19 -19
-16 -15 -15 -15 -15 -15 -15 -15 -15 -15 -15 -15 -15 -15 -15 -15 -16 -17 -17 -17 -18 -18 -19 -20 -19 -19 -19 -19 -19 -19 -19 -19
-16 -15 -15 -16 -15 -15 -15 -15 -15 -15 -15 -15 -14 -14 -15 -15 -15 -15 -16 -17 -17 -18 -19 -19 -19 -19 -19 -19 -19 -19 -19 -19
-15 -15 -16 -15 -15 -15 -15 -15 -15 -14 -15 -14 -15 -15 -15 -15 -15 -15 -16 -17 -17 -18 -18 -19 -19 -19 -19 -19 -19 -19 -19 -19
-15 -15 -15 -15 -15 -15 -14 -14 -14 -14 -14 -14 -14 -15 -15 -15 -16 -16 -16 -17 -18 -18 -18 -19 -19 -20 -20 -20 -20 -20 -20 -20
-15 -15 -15 -14 -14 -14 -14 -14 -14 -14 -14 -15 -15 -15 -15 -16 -16 -17 -17 -18 -18 -18 -19 -19 -20 -20 -20 -20 -20 -20 -20 -20
-15 -14 -14 -14 -14 -14 -14 -14 -15 -15 -15 -15 -15 -16 -16 -16 -17 -17 -18 -18 -19 -19 -20 -20 -20 -20 -20 -20 -21 -21 -21 -21
-14 -14 -14 -14 -14 -14 -14 -15 -15 -15 -15 -15 -16 -16 -17 -17 -17 -18 -18 -19 -19 -20 -20 -20 -20 -20 -20 -21 -21 -21 -22 -22
-14 -14 -14 -14 -14 -14 -15 -15 -15 -15 -16 -16 -16 -17 -17 -17 -17 -18 -19 -19 -19 -20 -20 -20 -20 -21 -21 -21 -21 -22 -22 -22
-14 -14 -14 -15 -15 -15 -15 -15 -15 -16 -16 -16 -17 -17 -17 -18 -19 -19 -19 -20 -20 -20 -20 -21 -21 -21 -21 -22 -22 -22 -22 -23
-15 -15 -15 -15 -15 -15 -15 -16 -16 -16 -17 -17 -17 -18 -19 -19 -19 -19 -19 -20 -20 -20 -21 -21 -21 -21 -22 -22 -22 -22 -23 -24
-15 -15 -15 -15 -15 -16 -16 -16 -16 -17 -17 -17 -18 -18 -19 -19 -19 -19 -20 -20 -21 -21 -21 -21 -21 -22 -22 -23 -23 -23 -24 -26
-15 -15 -15 -16 -16 -16 -16 -17 -17 -17 -18 -18 -18 -19 -19 -19 -20 -20 -20 -21 -21 -21 -21 -22 -22 -22 -23 -23 -23 -24 -25 -27
-15 -16 -16 -16 -16 -17 -17 -17 -18 -18 -18 -19 -19 -19 -19 -20 -20 -21 -21 -21 -21 -21 -22 -22 -22 -23 -23 -23 -24 -25 -27 -29
-16 -16 -16 -17 -17 -17 -18 -18 -18 -18 -19 -19 -19 -20 -20 -20 -21 -21 -21 -21 -21 -22 -22 -22 -23 -24 -23 -24 -24 -26 -28 -30
-16 -17 -17 -17 -17 -18 -18 -18 -19 -19 -19 -19 -20 -20 -20 -20 -20 -21 -21 -22 -22 -22 -22 -23 -24 -24 -24 -25 -26 -27 -29 -31
-17 -17 -17 -18 -18 -18 -19 -19 -19 -19 -19 -20 -20 -20 -21 -21 -21 -21 -22 -22 -22 -23 -23 -24 -24 -24 -25 -26 -27 -29 -31 -32
-17 -18 -18 -19 -19 -19 -19 -19 -19 -20 -20 -20 -20 -21 -21 -21 -22 -22 -22 -22 -22 -24 -25 -25 -25 -25 -26 -27 -28 -30 -32 -32

GFSFLT1_500_temp_030.txt.gz
Temp
-15 -14 -15 -14 -15 -15 -15 -15 -14 -14 -15 -15 -15 -15 -15 -14 -14 -14 -14 -14 -15 -15 -16 -16 -17 -18 -18 -18 -19 -19 -19 -19
-15 -15 -15 -15 -15 -14 -14 -14 -14 -14 -15 -15 -15 -15 -14 -14 -14 -14 -14 -15 -15 -15 -16 -16 -17 -18 -19 -19 -19 -19 -19 -20
-15 -15 -15 -14 -14 -14 -14 -15 -15 -15 -15 -14 -14 -14 -14 -14 -14 -14 -15 -15 -15 -16 -17 -17 -18 -18 -18 -19 -19 -19 -19 -20
-15 -15 -15 -15 -15 -15 -15 -15 -15 -15 -14 -14 -14 -14 -14 -14 -14 -15 -15 -15 -16 -16 -17 -17 -18 -18 -18 -18 -19 -19 -19 -20
-15 -15 -15 -15 -15 -15 -15 -15 -14 -14 -14 -14 -14 -14 -14 -14 -15 -15 -15 -16 -16 -17 -17 -18 -18 -18 -19 -19 -19 -19 -20 -20
-15 -15 -15 -15 -15 -15 -15 -14 -14 -14 -14 -14 -14 -14 -14 -15 -15 -15 -16 -16 -17 -17 -18 -18 -18 -18 -19 -19 -20 -20 -20 -20
-15 -14 -15 -14 -15 -14 -14 -14 -14 -14 -15 -15 -15 -15 -15 -15 -16 -16 -16 -17 -17 -17 -18 -18 -18 -19 -19 -20 -20 -20 -21 -20
-14 -14 -14 -14 -14 -14 -14 -14 -14 -15 -15 -15 -15 -15 -16 -16 -16 -17 -17 -17 -17 -18 -18 -19 -19 -19 -20 -20 -21 -21 -21 -21
-14 -14 -14 -14 -14 -14 -14 -15 -15 -15 -15 -15 -16 -16 -16 -16 -17 -17 -18 -18 -18 -19 -19 -19 -20 -20 -20 -20 -21 -21 -21 -21
-14 -14 -14 -14 -15 -15 -15 -15 -15 -15 -15 -16 -16 -16 -17 -17 -17 -18 -18 -19 -19 -19 -19 -19 -20 -20 -20 -21 -21 -21 -21 -21
-14 -15 -15 -15 -15 -15 -15 -15 -15 -16 -16 -16 -17 -17 -17 -18 -18 -18 -19 -19 -19 -20 -20 -20 -20 -20 -20 -21 -21 -21 -21 -22
-15 -15 -15 -15 -15 -15 -15 -16 -16 -16 -16 -17 -17 -17 -18 -18 -18 -18 -19 -20 -20 -20 -20 -20 -20 -20 -21 -21 -21 -22 -22 -23
-15 -15 -15 -15 -15 -15 -16 -16 -16 -17 -17 -18 -18 -18 -18 -18 -19 -19 -19 -20 -20 -20 -20 -20 -20 -21 -21 -21 -22 -22 -23 -23
-15 -15 -15 -15 -16 -16 -16 -17 -17 -17 -18 -18 -18 -18 -19 -19 -19 -19 -20 -20 -20 -20 -20 -21 -21 -21 -22 -22 -22 -24 -23 -24
-15 -15 -15 -15 -16 -16 -17 -17 -18 -18 -18 -18 -19 -19 -19 -20 -20 -20 -21 -21 -21 -21 -21 -21 -21 -22 -22 -23 -24 -24 -24 -24
-16 -16 -16 -16 -16 -17 -17 -17 -18 -19 -19 -19 -19 -19 -20 -20 -20 -20 -21 -21 -21 -21 -21 -22 -22 -22 -24 -25 -24 -25 -24 -25
-16 -17 -17 -17 -17 -17 -18 -18 -18 -19 -19 -19 -20 -20 -20 -20 -20 -21 -21 -21 -21 -22 -22 -22 -22 -23 -25 -24 -24 -25 -25 -26
-17 -17 -17 -18 -18 -18 -18 -19 -19 -19 -19 -20 -20 -20 -20 -20 -20 -20 -21 -22 -22 -22 -22 -22 -23 -24 -25 -25 -25 -26 -26 -28
-16 -17 -17 -18 -18 -18 -19 -19 -19 -19 -19 -20 -20 -20 -20 -20 -21 -21 -21 -21 -22 -22 -22 -23 -24 -25 -25 -26 -26 -27 -28 -29